Time,TemperatureF,DewpointF,PressureIn,WindDirection,WindDirectionDegrees,WindSpeedMPH,WindSpeedGustMPH,Humidity,HourlyPrecipIn,Conditions,Clouds,dailyrainin,SoftwareType,DateUTC
2013-05-19 00:00:00,63.2,58.6,29.82,SE,144,0.0,5.0,85,0.00,CLR,,0.00,WeatherDisplay:10.37,2013-05-19 05:00:00,
2013-05-19 00:05:00,63.1,58.5,29.82,SE,142,0.0,1.0,85,0.00,CLR,,0.00,WeatherDisplay:10.37,2013-05-19 05:05:00,
2013-05-19 00:10:00,63.1,58.8,29.82,SE,142,0.0,4.0,86,0.00,CLR,,0.00,WeatherDisplay:10.37,2013-05-19 05:10:00,
2013-05-19 00:15:00,63.1,58.8,29.81,SSE,150,1.0,6.0,86,0.00,CLR,,0.00,WeatherDisplay:10.37,2013-05-19 05:15:00,
2013-05-19 00:20:00,62.9,58.6,29.81,SSE,152,0.0,3.0,86,0.00,CLR,,0.00,WeatherDisplay:10.37,2013-05-19 05:20:00,
2013-05-19 00:25:00,62.9,58.6,29.81,SE,142,0.0,1.0,86,0.00,CLR,,0.00,WeatherDisplay:10.37,2013-05-19 05:25:00,
2013-05-19 00:30:00,62.7,58.5,29.81,SE,140,0.0,5.0,86,0.00,CLR,,0.00,WeatherDisplay:10.37,2013-05-19 05:30:00,
2013-05-19 00:35:00,62.7,58.5,29.81,SE,141,0.0,7.0,86,0.00,CLR,,0.00,WeatherDisplay:10.37,2013-05-19 05:35:00,
2013-05-19 00:40:00,62.6,58.4,29.81,SE,143,0.0,2.0,86,0.00,CLR,,0.00,WeatherDisplay:10.37,2013-05-19 05:40:00,
2013-05-19 00:45:00,62.6,58.7,29.81,SSE,153,1.0,7.0,87,0.00,CLR,,0.00,WeatherDisplay:10.37,2013-05-19 05:45:00,
2013-05-19 00:50:00,62.6,58.7,29.81,SSE,168,0.0,3.0,87,0.00,CLR,,0.00,WeatherDisplay:10.37,2013-05-19 05:50:00,
2013-05-19 00:55:00,62.6,58.7,29.81,South,172,0.0,1.0,87,0.00,CLR,,0.00,WeatherDisplay:10.37,2013-05-19 05:55:00,
2013-05-19 01:00:00,62.4,58.5,29.81,SE,133,0.0,4.0,87,0.00,CLR,,0.00,WeatherDisplay:10.37,2013-05-19 06:00:00,
2013-05-19 01:05:00,62.4,58.5,29.81,ESE,116,0.0,0.0,87,0.00,CLR,,0.00,WeatherDisplay:10.37,2013-05-19 06:05:00,
2013-05-19 01:15:00,62.1,58.5,29.81,SSW,194,0.0,4.0,88,0.00,CLR,,0.00,WeatherDisplay:10.37,2013-05-19 06:15:00,
2013-05-19 01:20:00,62.1,58.5,29.81,South,186,1.0,2.0,88,0.00,CLR,,0.00,WeatherDisplay:10.37,2013-05-19 06:20:00,
2013-05-19 01:25:00,62.1,58.5,29.81,South,184,0.0,2.0,88,0.00,CLR,,0.00,WeatherDisplay:10.37,2013-05-19 06:25:00,
2013-05-19 01:30:00,62.1,58.5,29.81,South,184,0.0,2.0,88,0.00,CLR,,0.00,WeatherDisplay:10.37,2013-05-19 06:30:00,
2013-05-19 01:35:00,62.1,58.8,29.81,South,187,0.0,1.0,89,0.00,CLR,,0.00,WeatherDisplay:10.37,2013-05-19 06:35:00,
2013-05-19 01:45:00,62.0,58.7,29.82,South,188,0.0,0.0,89,0.00,CLR,,0.00,WeatherDisplay:10.37,2013-05-19 06:45:00,
2013-05-19 01:50:00,61.8,58.5,29.82,South,188,0.0,0.0,89,0.00,CLR,,0.00,WeatherDisplay:10.37,2013-05-19 06:50:00,
2013-05-19 01:55:00,61.6,58.3,29.82,South,188,0.0,1.0,89,0.00,CLR,,0.00,WeatherDisplay:10.37,2013-05-19 06:55:00,
2013-05-19 02:00:00,61.5,58.6,29.81,South,187,0.0,3.0,90,0.00,CLR,,0.00,WeatherDisplay:10.37,2013-05-19 07:00:00,
2013-05-19 02:05:00,61.3,58.3,29.81,South,186,0.0,1.0,90,0.00,CLR,,0.00,WeatherDisplay:10.37,2013-05-19 07:05:00,
2013-05-19 02:10:00,61.3,58.3,29.81,SSW,193,0.0,3.0,90,0.00,CLR,,0.00,WeatherDisplay:10.37,2013-05-19 07:10:00,
2013-05-19 02:20:00,61.0,58.4,29.81,SSE,163,0.0,4.0,91,0.00,CLR,,0.00,WeatherDisplay:10.37,2013-05-19 07:20:00,
2013-05-19 02:25:00,61.0,58.4,29.81,ESE,121,0.0,2.0,91,0.00,CLR,,0.00,WeatherDisplay:10.37,2013-05-19 07:25:00,
2013-05-19 02:30:00,61.0,58.4,29.80,ESE,121,0.0,3.0,91,0.00,CLR,,0.00,WeatherDisplay:10.37,2013-05-19 07:30:00,
2013-05-19 02:35:00,60.9,58.3,29.80,ESE,122,0.0,1.0,91,0.00,CLR,,0.00,WeatherDisplay:10.37,2013-05-19 07:35:00,
2013-05-19 02:40:00,60.9,57.9,29.80,SE,136,1.0,5.0,90,0.00,CLR,,0.00,WeatherDisplay:10.37,2013-05-19 07:40:00,
2013-05-19 02:45:00,60.9,58.3,29.80,SSE,151,0.0,0.0,91,0.00,CLR,,0.00,WeatherDisplay:10.37,2013-05-19 07:45:00,
2013-05-19 02:50:00,60.7,58.1,29.80,SSE,159,0.0,1.0,91,0.00,CLR,,0.00,WeatherDisplay:10.37,2013-05-19 07:50:00,
2013-05-19 02:55:00,60.7,58.1,29.80,SSE,157,0.0,2.0,91,0.00,CLR,,0.00,WeatherDisplay:10.37,2013-05-19 07:55:00,
2013-05-19 03:00:00,60.5,57.9,29.81,SSE,153,0.0,0.0,91,0.00,CLR,,0.00,WeatherDisplay:10.37,2013-05-19 08:00:00,
2013-05-19 03:05:00,60.5,58.2,29.81,SSE,153,0.0,1.0,92,0.00,CLR,,0.00,WeatherDisplay:10.37,2013-05-19 08:05:00,
2013-05-19 03:10:00,60.5,58.2,29.81,SSE,152,0.0,3.0,92,0.00,CLR,,0.00,WeatherDisplay:10.37,2013-05-19 08:10:00,
2013-05-19 03:15:00,60.5,58.2,29.81,SSE,152,1.0,2.0,92,0.00,CLR,,0.00,WeatherDisplay:10.37,2013-05-19 08:15:00,
2013-05-19 03:20:00,60.5,58.2,29.81,SSE,152,0.0,2.0,92,0.00,CLR,,0.00,WeatherDisplay:10.37,2013-05-19 08:20:00,
2013-05-19 03:25:00,60.5,58.2,29.81,SSE,152,0.0,1.0,92,0.00,CLR,,0.00,WeatherDisplay:10.37,2013-05-19 08:25:00,
2013-05-19 03:30:00,60.5,57.9,29.81,SSE,152,0.0,1.0,91,0.00,CLR,,0.00,WeatherDisplay:10.37,2013-05-19 08:30:00,
2013-05-19 03:35:00,60.5,57.9,29.81,SSE,152,0.0,0.0,91,0.00,CLR,,0.00,WeatherDisplay:10.37,2013-05-19 08:35:00,
2013-05-19 03:40:00,60.5,57.9,29.81,SSE,152,0.0,0.0,91,0.00,CLR,,0.00,WeatherDisplay:10.37,2013-05-19 08:40:00,
2013-05-19 03:45:00,60.4,57.7,29.81,SSE,152,0.0,0.0,91,0.00,CLR,,0.00,WeatherDisplay:10.37,2013-05-19 08:45:00,
2013-05-19 03:50:00,60.1,57.5,29.81,SSE,152,0.0,2.0,91,0.00,CLR,,0.00,WeatherDisplay:10.37,2013-05-19 08:50:00,
2013-05-19 03:55:00,60.1,57.8,29.81,SSE,153,0.0,2.0,92,0.00,CLR,,0.00,WeatherDisplay:10.37,2013-05-19 08:55:00,
2013-05-19 04:00:00,60.1,57.8,29.81,SSE,151,0.0,1.0,92,0.00,CLR,,0.00,WeatherDisplay:10.37,2013-05-19 09:00:00,
2013-05-19 04:05:00,60.1,57.8,29.81,SSE,150,0.0,1.0,92,0.00,CLR,,0.00,WeatherDisplay:10.37,2013-05-19 09:05:00,
2013-05-19 04:10:00,59.9,57.6,29.81,SSE,150,0.0,0.0,92,0.00,CLR,,0.00,WeatherDisplay:10.37,2013-05-19 09:10:00,
2013-05-19 04:20:00,59.8,57.5,29.82,SSE,150,0.0,1.0,92,0.00,CLR,,0.00,WeatherDisplay:10.37,2013-05-19 09:20:00,
2013-05-19 04:25:00,59.8,57.8,29.82,SSE,149,0.0,0.0,93,0.00,CLR,,0.00,WeatherDisplay:10.37,2013-05-19 09:25:00,
2013-05-19 04:30:00,59.8,57.8,29.82,SSE,150,0.0,2.0,93,0.00,CLR,,0.00,WeatherDisplay:10.37,2013-05-19 09:30:00,
2013-05-19 04:40:00,59.8,57.8,29.82,SSE,149,0.0,0.0,93,0.00,CLR,,0.00,WeatherDisplay:10.37,2013-05-19 09:40:00,
2013-05-19 04:45:00,59.9,57.9,29.82,SSE,149,0.0,0.0,93,0.00,CLR,,0.00,WeatherDisplay:10.37,2013-05-19 09:45:00,
2013-05-19 04:50:00,59.9,57.9,29.82,SSE,150,0.0,0.0,93,0.00,CLR,,0.00,WeatherDisplay:10.37,2013-05-19 09:50:00,
2013-05-19 04:55:00,59.8,57.8,29.82,SSE,150,0.0,0.0,93,0.00,CLR,,0.00,WeatherDisplay:10.37,2013-05-19 09:55:00,
2013-05-19 05:00:00,59.8,57.8,29.82,SSE,149,0.0,0.0,93,0.00,CLR,,0.00,WeatherDisplay:10.37,2013-05-19 10:00:00,
2013-05-19 05:05:00,59.6,57.6,29.82,SSE,150,0.0,0.0,93,0.00,CLR,,0.00,WeatherDisplay:10.37,2013-05-19 10:05:00,
2013-05-19 05:10:00,59.5,57.5,29.82,SSE,149,2.0,5.0,93,0.00,CLR,,0.00,WeatherDisplay:10.37,2013-05-19 10:10:00,
2013-05-19 05:15:00,59.5,57.5,29.80,SSE,148,1.0,3.0,93,0.00,CLR,,0.00,WeatherDisplay:10.37,2013-05-19 10:15:00,
2013-05-19 05:20:00,59.5,57.5,29.80,SSE,148,0.0,3.0,93,0.00,CLR,,0.00,WeatherDisplay:10.37,2013-05-19 10:20:00,
2013-05-19 05:25:00,59.5,57.5,29.80,SSE,148,1.0,3.0,93,0.00,CLR,,0.00,WeatherDisplay:10.37,2013-05-19 10:25:00,
2013-05-19 05:30:00,59.5,57.2,29.79,SSE,148,0.0,1.0,92,0.00,CLR,,0.00,WeatherDisplay:10.37,2013-05-19 10:30:00,
2013-05-19 05:35:00,59.5,57.5,29.79,SSE,147,0.0,2.0,93,0.00,CLR,,0.00,WeatherDisplay:10.37,2013-05-19 10:35:00,
2013-05-19 05:40:00,59.5,57.5,29.79,SSE,147,1.0,2.0,93,0.00,CLR,,0.00,WeatherDisplay:10.37,2013-05-19 10:40:00,
2013-05-19 05:45:00,59.5,57.5,29.80,SSE,147,0.0,0.0,93,0.00,CLR,,0.00,WeatherDisplay:10.37,2013-05-19 10:45:00,
2013-05-19 05:50:00,59.6,57.6,29.80,SSE,148,0.0,2.0,93,0.00,CLR,,0.00,WeatherDisplay:10.37,2013-05-19 10:50:00,
2013-05-19 05:55:00,59.6,57.6,29.80,SSE,148,0.0,0.0,93,0.00,CLR,,0.00,WeatherDisplay:10.37,2013-05-19 10:55:00,
2013-05-19 06:00:00,59.6,57.6,29.81,SSE,148,0.0,2.0,93,0.00,CLR,,0.00,WeatherDisplay:10.37,2013-05-19 11:00:00,
2013-05-19 06:05:00,59.6,57.6,29.81,SSE,148,0.0,1.0,93,0.00,CLR,,0.00,WeatherDisplay:10.37,2013-05-19 11:05:00,
2013-05-19 06:10:00,59.6,57.6,29.81,SSE,148,0.0,0.0,93,0.00,CLR,,0.00,WeatherDisplay:10.37,2013-05-19 11:10:00,
2013-05-19 06:15:00,59.8,57.8,29.82,SSE,147,0.0,0.0,93,0.00,CLR,,0.00,WeatherDisplay:10.37,2013-05-19 11:15:00,
2013-05-19 06:20:00,59.9,57.8,29.82,SSE,147,0.0,2.0,93,0.00,CLR,,0.00,WeatherDisplay:10.37,2013-05-19 11:20:00,
2013-05-19 06:25:00,60.1,58.4,29.82,SSE,148,0.0,1.0,94,0.00,CLR,,0.00,WeatherDisplay:10.37,2013-05-19 11:25:00,
2013-05-19 06:30:00,60.5,58.5,29.82,SSE,148,0.0,2.0,93,0.00,CLR,,0.00,WeatherDisplay:10.37,2013-05-19 11:30:00,
2013-05-19 06:35:00,61.0,58.6,29.82,SSE,147,0.0,3.0,92,0.00,CLR,,0.00,WeatherDisplay:10.37,2013-05-19 11:35:00,
2013-05-19 06:40:00,61.3,59.0,29.82,SSE,147,2.0,4.0,92,0.00,CLR,,0.00,WeatherDisplay:10.37,2013-05-19 11:40:00,
2013-05-19 06:45:00,61.6,58.9,29.82,SSE,147,0.0,3.0,91,0.00,CLR,,0.00,WeatherDisplay:10.37,2013-05-19 11:45:00,
2013-05-19 06:50:00,62.0,59.0,29.82,SE,146,0.0,3.0,90,0.00,CLR,,0.00,WeatherDisplay:10.37,2013-05-19 11:50:00,
2013-05-19 06:55:00,62.1,59.1,29.82,SE,145,0.0,3.0,90,0.00,CLR,,0.00,WeatherDisplay:10.37,2013-05-19 11:55:00,
2013-05-19 07:00:00,62.1,59.1,29.82,SE,139,0.0,5.0,90,0.00,CLR,,0.00,WeatherDisplay:10.37,2013-05-19 12:00:00,
2013-05-19 07:05:00,62.3,59.3,29.82,SE,139,0.0,4.0,90,0.00,CLR,,0.00,WeatherDisplay:10.37,2013-05-19 12:05:00,
2013-05-19 07:10:00,62.6,59.6,29.82,SE,139,0.0,5.0,90,0.00,CLR,,0.00,WeatherDisplay:10.37,2013-05-19 12:10:00,
2013-05-19 07:15:00,63.1,59.8,29.82,SE,140,2.0,5.0,89,0.00,CLR,,0.00,WeatherDisplay:10.37,2013-05-19 12:15:00,
2013-05-19 07:20:00,63.5,60.2,29.82,SSE,168,0.0,6.0,89,0.00,CLR,,0.00,WeatherDisplay:10.37,2013-05-19 12:20:00,
2013-05-19 07:25:00,64.1,60.4,29.82,SSE,153,0.0,6.0,88,0.00,CLR,,0.00,WeatherDisplay:10.37,2013-05-19 12:25:00,
2013-05-19 07:30:00,64.7,61.1,29.83,SE,126,0.0,3.0,88,0.00,CLR,,0.00,WeatherDisplay:10.37,2013-05-19 12:30:00,
2013-05-19 07:35:00,65.3,61.0,29.83,SE,142,0.0,1.0,86,0.00,CLR,,0.00,WeatherDisplay:10.37,2013-05-19 12:35:00,
2013-05-19 07:40:00,65.6,60.6,29.83,SSE,154,0.0,4.0,84,0.00,CLR,,0.00,WeatherDisplay:10.37,2013-05-19 12:40:00,
2013-05-19 07:45:00,65.8,60.8,29.82,South,185,1.0,3.0,84,0.00,CLR,,0.00,WeatherDisplay:10.37,2013-05-19 12:45:00,
2013-05-19 07:50:00,66.0,61.0,29.82,SW,223,1.0,3.0,84,0.00,CLR,,0.00,WeatherDisplay:10.37,2013-05-19 12:50:00,
2013-05-19 07:55:00,66.1,61.1,29.82,WSW,253,1.0,2.0,84,0.00,CLR,,0.00,WeatherDisplay:10.37,2013-05-19 12:55:00,
2013-05-19 08:00:00,66.3,61.4,29.81,SSW,204,1.0,6.0,84,0.00,CLR,,0.00,WeatherDisplay:10.37,2013-05-19 13:00:00,
2013-05-19 08:05:00,66.8,61.8,29.81,South,178,0.0,0.0,84,0.00,CLR,,0.00,WeatherDisplay:10.37,2013-05-19 13:05:00,
2013-05-19 08:10:00,67.1,61.8,29.81,South,171,0.0,4.0,83,0.00,CLR,,0.00,WeatherDisplay:10.37,2013-05-19 13:10:00,
2013-05-19 08:15:00,67.4,62.1,29.82,SSE,167,0.0,4.0,83,0.00,CLR,,0.00,WeatherDisplay:10.37,2013-05-19 13:15:00,
2013-05-19 08:20:00,67.8,62.4,29.82,SSE,167,1.0,3.0,83,0.00,CLR,,0.00,WeatherDisplay:10.37,2013-05-19 13:20:00,
2013-05-19 08:25:00,68.2,62.5,29.82,South,189,0.0,4.0,82,0.00,CLR,,0.00,WeatherDisplay:10.37,2013-05-19 13:25:00,
2013-05-19 08:30:00,68.6,62.9,29.82,SW,214,1.0,4.0,82,0.00,CLR,,0.00,WeatherDisplay:10.37,2013-05-19 13:30:00,
2013-05-19 08:35:00,69.0,62.9,29.82,SW,233,0.0,3.0,81,0.00,CLR,,0.00,WeatherDisplay:10.37,2013-05-19 13:35:00,
2013-05-19 08:40:00,69.5,63.0,29.82,WSW,241,1.0,4.0,80,0.00,CLR,,0.00,WeatherDisplay:10.37,2013-05-19 13:40:00,
2013-05-19 08:45:00,69.8,63.0,29.83,SW,222,1.0,3.0,79,0.00,CLR,,0.00,WeatherDisplay:10.37,2013-05-19 13:45:00,
2013-05-19 08:50:00,70.1,63.6,29.83,SW,223,0.0,1.0,80,0.00,CLR,,0.00,WeatherDisplay:10.37,2013-05-19 13:50:00,
2013-05-19 08:55:00,70.3,63.5,29.83,SW,221,0.0,3.0,79,0.00,CLR,,0.00,WeatherDisplay:10.37,2013-05-19 13:55:00,
2013-05-19 09:00:00,70.7,63.8,29.82,SSW,212,0.0,4.0,79,0.00,CLR,,0.00,WeatherDisplay:10.37,2013-05-19 14:00:00,
2013-05-19 09:05:00,71.0,64.2,29.82,SSW,194,0.0,4.0,79,0.00,CLR,,0.00,WeatherDisplay:10.37,2013-05-19 14:05:00,
2013-05-19 09:10:00,71.5,64.3,29.82,SSE,151,1.0,4.0,78,0.00,CLR,,0.00,WeatherDisplay:10.37,2013-05-19 14:10:00,
2013-05-19 09:15:00,71.8,64.2,29.82,South,169,1.0,4.0,77,0.00,CLR,,0.00,WeatherDisplay:10.37,2013-05-19 14:15:00,
2013-05-19 09:20:00,72.0,64.8,29.82,SSW,197,1.0,4.0,78,0.00,CLR,,0.00,WeatherDisplay:10.37,2013-05-19 14:20:00,
2013-05-19 09:25:00,72.3,64.3,29.82,SSE,163,1.0,6.0,76,0.00,CLR,,0.00,WeatherDisplay:10.37,2013-05-19 14:25:00,
2013-05-19 09:30:00,72.7,65.1,29.80,South,174,1.0,4.0,77,0.00,CLR,,0.00,WeatherDisplay:10.37,2013-05-19 14:30:00,
2013-05-19 09:35:00,73.2,65.5,29.80,South,171,0.0,4.0,77,0.00,CLR,,0.00,WeatherDisplay:10.37,2013-05-19 14:35:00,
2013-05-19 09:40:00,73.5,65.1,29.80,SSE,151,1.0,6.0,75,0.00,CLR,,0.00,WeatherDisplay:10.37,2013-05-19 14:40:00,
2013-05-19 09:50:00,74.2,65.0,29.79,SSE,158,0.0,5.0,73,0.00,CLR,,0.00,WeatherDisplay:10.37,2013-05-19 14:50:00,
2013-05-19 09:55:00,74.5,65.7,29.79,SSW,194,2.0,6.0,74,0.00,CLR,,0.00,WeatherDisplay:10.37,2013-05-19 14:55:00,
2013-05-19 10:00:00,74.9,66.1,29.79,SSW,196,1.0,5.0,74,0.00,CLR,,0.00,WeatherDisplay:10.37,2013-05-19 15:00:00,
2013-05-19 10:05:00,75.3,65.6,29.79,SSW,193,0.0,5.0,72,0.00,CLR,,0.00,WeatherDisplay:10.37,2013-05-19 15:05:00,
2013-05-19 10:10:00,75.6,65.9,29.79,South,180,1.0,8.0,72,0.00,CLR,,0.00,WeatherDisplay:10.37,2013-05-19 15:10:00,
2013-05-19 10:20:00,75.8,65.7,29.78,SSW,209,0.0,4.0,71,0.00,CLR,,0.00,WeatherDisplay:10.37,2013-05-19 15:20:00,
2013-05-19 10:25:00,76.0,66.3,29.78,SW,227,1.0,4.0,72,0.00,CLR,,0.00,WeatherDisplay:10.37,2013-05-19 15:25:00,
2013-05-19 10:30:00,76.0,66.7,29.78,SSW,199,0.0,3.0,73,0.00,CLR,,0.00,WeatherDisplay:10.37,2013-05-19 15:30:00,
2013-05-19 10:35:00,76.0,66.7,29.78,SSW,200,0.0,4.0,73,0.00,CLR,,0.00,WeatherDisplay:10.37,2013-05-19 15:35:00,
2013-05-19 10:40:00,76.0,66.3,29.78,SSE,148,0.0,4.0,72,0.00,CLR,,0.00,WeatherDisplay:10.37,2013-05-19 15:40:00,
2013-05-19 10:45:00,76.0,66.7,29.78,South,175,1.0,4.0,73,0.00,CLR,,0.00,WeatherDisplay:10.37,2013-05-19 15:45:00,
2013-05-19 10:50:00,76.0,66.3,29.78,SSW,205,2.0,6.0,72,0.00,CLR,,0.00,WeatherDisplay:10.37,2013-05-19 15:50:00,
2013-05-19 10:55:00,76.0,66.7,29.78,SSW,212,2.0,4.0,73,0.00,CLR,,0.00,WeatherDisplay:10.37,2013-05-19 15:55:00,
2013-05-19 11:00:00,76.1,66.4,29.77,SW,214,0.0,3.0,72,0.00,CLR,,0.00,WeatherDisplay:10.37,2013-05-19 16:00:00,
2013-05-19 11:05:00,76.3,66.6,29.77,South,187,1.0,4.0,72,0.00,CLR,,0.00,WeatherDisplay:10.37,2013-05-19 16:05:00,
2013-05-19 11:10:00,76.5,66.4,29.77,South,186,1.0,9.0,71,0.00,CLR,,0.00,WeatherDisplay:10.37,2013-05-19 16:10:00,
2013-05-19 11:15:00,76.8,66.3,29.77,SSW,193,2.0,6.0,70,0.00,CLR,,0.00,WeatherDisplay:10.37,2013-05-19 16:15:00,
2013-05-19 11:20:00,76.8,65.4,29.77,SSW,195,1.0,8.0,68,0.00,CLR,,0.00,WeatherDisplay:10.37,2013-05-19 16:20:00,
2013-05-19 11:25:00,77.0,66.5,29.77,SSW,192,0.0,4.0,70,0.00,CLR,,0.00,WeatherDisplay:10.37,2013-05-19 16:25:00,
2013-05-19 11:30:00,77.0,66.0,29.75,SSE,164,0.0,5.0,69,0.00,CLR,,0.00,WeatherDisplay:10.37,2013-05-19 16:30:00,
2013-05-19 11:35:00,76.8,65.4,29.75,South,179,2.0,7.0,68,0.00,CLR,,0.00,WeatherDisplay:10.37,2013-05-19 16:35:00,
2013-05-19 11:40:00,76.8,65.9,29.75,South,190,0.0,4.0,69,0.00,CLR,,0.00,WeatherDisplay:10.37,2013-05-19 16:40:00,
2013-05-19 11:45:00,77.0,66.0,29.72,SSE,149,2.0,12.0,69,0.00,CLR,,0.00,WeatherDisplay:10.37,2013-05-19 16:45:00,
2013-05-19 11:50:00,77.0,65.6,29.72,SE,136,1.0,13.0,68,0.00,CLR,,0.00,WeatherDisplay:10.37,2013-05-19 16:50:00,
2013-05-19 12:00:00,77.4,66.0,29.70,SSE,152,2.0,14.0,68,0.00,CLR,,0.00,WeatherDisplay:10.37,2013-05-19 17:00:00,
2013-05-19 12:05:00,77.4,66.4,29.70,SE,142,3.0,14.0,69,0.00,CLR,,0.00,WeatherDisplay:10.37,2013-05-19 17:05:00,
2013-05-19 12:10:00,77.8,66.4,29.70,ESE,121,2.0,10.0,68,0.00,CLR,,0.00,WeatherDisplay:10.37,2013-05-19 17:10:00,
2013-05-19 12:15:00,78.1,65.8,29.69,SE,132,2.0,12.0,66,0.00,CLR,,0.00,WeatherDisplay:10.37,2013-05-19 17:15:00,
2013-05-19 12:20:00,78.5,66.1,29.69,SE,142,5.0,14.0,66,0.00,CLR,,0.00,WeatherDisplay:10.37,2013-05-19 17:20:00,
2013-05-19 12:25:00,78.6,65.8,29.69,SE,135,6.0,17.0,65,0.00,CLR,,0.00,WeatherDisplay:10.37,2013-05-19 17:25:00,
2013-05-19 12:30:00,78.9,66.6,29.68,SE,133,2.0,8.0,66,0.00,CLR,,0.00,WeatherDisplay:10.37,2013-05-19 17:30:00,
2013-05-19 12:35:00,79.2,66.4,29.68,ESE,106,3.0,12.0,65,0.00,CLR,,0.00,WeatherDisplay:10.37,2013-05-19 17:35:00,
2013-05-19 12:40:00,79.4,66.2,29.68,ESE,118,5.0,15.0,64,0.00,CLR,,0.00,WeatherDisplay:10.37,2013-05-19 17:40:00,
2013-05-19 12:45:00,79.6,66.8,29.66,SE,127,2.0,17.0,65,0.00,CLR,,0.00,WeatherDisplay:10.37,2013-05-19 17:45:00,
2013-05-19 12:55:00,80.4,66.2,29.66,SE,142,2.0,12.0,62,0.00,CLR,,0.00,WeatherDisplay:10.37,2013-05-19 17:55:00,
2013-05-19 13:00:00,80.8,66.1,29.66,SSE,151,5.0,13.0,61,0.00,CLR,,0.00,WeatherDisplay:10.37,2013-05-19 18:00:00,
2013-05-19 13:05:00,81.1,65.9,29.66,South,173,2.0,9.0,60,0.00,CLR,,0.00,WeatherDisplay:10.37,2013-05-19 18:05:00,
2013-05-19 13:10:00,81.2,66.5,29.66,South,178,2.0,8.0,61,0.00,CLR,,0.00,WeatherDisplay:10.37,2013-05-19 18:10:00,
2013-05-19 13:15:00,81.6,65.4,29.68,SSE,158,6.0,12.0,58,0.00,CLR,,0.00,WeatherDisplay:10.37,2013-05-19 18:15:00,
2013-05-19 13:20:00,81.8,66.1,29.68,SSW,195,3.0,7.0,59,0.00,CLR,,0.00,WeatherDisplay:10.37,2013-05-19 18:20:00,
2013-05-19 13:25:00,81.8,66.1,29.68,SW,217,2.0,13.0,59,0.00,CLR,,0.00,WeatherDisplay:10.37,2013-05-19 18:25:00,
2013-05-19 13:30:00,81.9,64.7,29.68,South,176,3.0,10.0,56,0.00,CLR,,0.00,WeatherDisplay:10.37,2013-05-19 18:30:00,
2013-05-19 13:35:00,82.0,65.2,29.68,South,179,2.0,8.0,57,0.00,CLR,,0.00,WeatherDisplay:10.37,2013-05-19 18:35:00,
2013-05-19 13:40:00,82.2,66.0,29.68,SSW,201,2.0,7.0,58,0.00,CLR,,0.00,WeatherDisplay:10.37,2013-05-19 18:40:00,
2013-05-19 13:45:00,82.6,66.3,29.70,SSW,205,1.0,9.0,58,0.00,CLR,,0.00,WeatherDisplay:10.37,2013-05-19 18:45:00,
2013-05-19 13:55:00,82.6,65.3,29.70,South,173,2.0,12.0,56,0.00,CLR,,0.00,WeatherDisplay:10.37,2013-05-19 18:55:00,
2013-05-19 14:00:00,82.4,65.6,29.69,SSW,193,1.0,9.0,57,0.00,CLR,,0.00,WeatherDisplay:10.37,2013-05-19 19:00:00,
2013-05-19 14:05:00,82.4,65.6,29.69,SSW,206,3.0,7.0,57,0.00,CLR,,0.00,WeatherDisplay:10.37,2013-05-19 19:05:00,
2013-05-19 14:10:00,82.8,66.0,29.69,SSW,204,3.0,8.0,57,0.00,CLR,,0.00,WeatherDisplay:10.37,2013-05-19 19:10:00,
2013-05-19 14:15:00,83.2,66.4,29.70,SSW,208,2.0,10.0,57,0.00,CLR,,0.00,WeatherDisplay:10.37,2013-05-19 19:15:00,
2013-05-19 14:20:00,83.6,67.3,29.70,SSW,209,0.0,6.0,58,0.00,CLR,,0.00,WeatherDisplay:10.37,2013-05-19 19:20:00,
2013-05-19 14:25:00,83.8,66.4,29.70,SSW,203,3.0,7.0,56,0.00,CLR,,0.00,WeatherDisplay:10.37,2013-05-19 19:25:00,
2013-05-19 14:30:00,84.0,66.1,29.70,SSW,202,3.0,8.0,55,0.00,CLR,,0.00,WeatherDisplay:10.37,2013-05-19 19:30:00,
2013-05-19 14:35:00,84.0,65.6,29.70,SSW,205,3.0,9.0,54,0.00,CLR,,0.00,WeatherDisplay:10.37,2013-05-19 19:35:00,
2013-05-19 14:40:00,84.0,66.1,29.70,SSW,197,3.0,9.0,55,0.00,CLR,,0.00,WeatherDisplay:10.37,2013-05-19 19:40:00,
2013-05-19 14:45:00,84.0,66.1,29.70,SSW,199,3.0,7.0,55,0.00,CLR,,0.00,WeatherDisplay:10.37,2013-05-19 19:45:00,
2013-05-19 14:50:00,84.0,66.1,29.70,SSW,203,1.0,7.0,55,0.00,CLR,,0.00,WeatherDisplay:10.37,2013-05-19 19:50:00,
2013-05-19 14:55:00,84.1,65.1,29.70,SSW,194,2.0,8.0,53,0.00,CLR,,0.00,WeatherDisplay:10.37,2013-05-19 19:55:00,
2013-05-19 15:00:00,84.1,65.1,29.69,SSW,199,1.0,6.0,53,0.00,CLR,,0.00,WeatherDisplay:10.37,2013-05-19 20:00:00,
2013-05-19 15:05:00,84.1,65.7,29.69,SSW,211,3.0,9.0,54,0.00,CLR,,0.00,WeatherDisplay:10.37,2013-05-19 20:05:00,
2013-05-19 15:10:00,84.0,64.5,29.69,SSW,201,2.0,12.0,52,0.00,CLR,,0.00,WeatherDisplay:10.37,2013-05-19 20:10:00,
2013-05-19 15:15:00,84.0,63.9,29.68,SSW,198,5.0,7.0,51,0.00,CLR,,0.00,WeatherDisplay:10.37,2013-05-19 20:15:00,
2013-05-19 15:20:00,83.8,64.8,29.68,SSW,208,2.0,8.0,53,0.00,CLR,,0.00,WeatherDisplay:10.37,2013-05-19 20:20:00,
2013-05-19 15:25:00,83.6,64.7,29.68,SSW,205,3.0,9.0,53,0.00,CLR,,0.00,WeatherDisplay:10.37,2013-05-19 20:25:00,
2013-05-19 15:30:00,83.6,65.2,29.69,SSW,210,2.0,8.0,54,0.00,CLR,,0.00,WeatherDisplay:10.37,2013-05-19 20:30:00,
2013-05-19 15:35:00,83.8,65.4,29.69,SSW,207,2.0,8.0,54,0.00,CLR,,0.00,WeatherDisplay:10.37,2013-05-19 20:35:00,
2013-05-19 15:40:00,83.8,65.4,29.69,SSW,205,2.0,7.0,54,0.00,CLR,,0.00,WeatherDisplay:10.37,2013-05-19 20:40:00,
2013-05-19 15:45:00,84.0,66.6,29.68,SSW,204,0.0,3.0,56,0.00,CLR,,0.00,WeatherDisplay:10.37,2013-05-19 20:45:00,
2013-05-19 15:50:00,83.8,65.4,29.68,SSW,204,2.0,10.0,54,0.00,CLR,,0.00,WeatherDisplay:10.37,2013-05-19 20:50:00,
2013-05-19 15:55:00,83.4,65.0,29.68,SSW,207,5.0,8.0,54,0.00,CLR,,0.00,WeatherDisplay:10.37,2013-05-19 20:55:00,
2013-05-19 16:00:00,83.0,65.2,29.70,SSW,202,6.0,10.0,55,0.00,CLR,,0.00,WeatherDisplay:10.37,2013-05-19 21:00:00,
2013-05-19 16:05:00,82.8,64.5,29.70,SSW,202,6.0,12.0,54,0.00,CLR,,0.00,WeatherDisplay:10.37,2013-05-19 21:05:00,
2013-05-19 16:10:00,82.3,61.8,29.70,SSW,200,8.0,16.0,50,0.00,CLR,,0.00,WeatherDisplay:10.37,2013-05-19 21:10:00,
2013-05-19 16:20:00,79.2,60.1,29.69,SSW,203,3.0,10.0,52,0.00,CLR,,0.00,WeatherDisplay:10.37,2013-05-19 21:20:00,
2013-05-19 16:25:00,77.9,59.9,29.69,SSW,207,3.0,7.0,54,0.00,CLR,,0.00,WeatherDisplay:10.37,2013-05-19 21:25:00,
2013-05-19 16:30:00,76.6,61.7,29.66,SSW,199,0.0,7.0,60,0.00,CLR,,0.00,WeatherDisplay:10.37,2013-05-19 21:30:00,
2013-05-19 16:35:00,75.7,62.6,29.66,SE,138,0.0,0.0,64,0.00,CLR,,0.00,WeatherDisplay:10.37,2013-05-19 21:35:00,
2013-05-19 16:40:00,74.7,61.7,29.66,ESE,121,0.0,1.0,64,0.00,CLR,,0.00,WeatherDisplay:10.37,2013-05-19 21:40:00,
2013-05-19 16:50:00,73.2,60.7,29.64,ESE,121,0.0,3.0,65,0.00,CLR,,0.00,WeatherDisplay:10.37,2013-05-19 21:50:00,
2013-05-19 16:55:00,72.7,61.1,29.64,SE,127,0.0,5.0,67,0.00,CLR,,0.00,WeatherDisplay:10.37,2013-05-19 21:55:00,
2013-05-19 17:00:00,72.3,61.1,29.62,SE,132,0.0,9.0,68,0.00,CLR,,0.00,WeatherDisplay:10.37,2013-05-19 22:00:00,
2013-05-19 17:10:00,72.0,60.4,29.62,SE,134,2.0,6.0,67,0.00,CLR,,0.00,WeatherDisplay:10.37,2013-05-19 22:10:00,
2013-05-19 17:15:00,72.1,59.7,29.63,SE,140,2.0,5.0,65,0.00,CLR,,0.00,WeatherDisplay:10.37,2013-05-19 22:15:00,
2013-05-19 17:20:00,72.6,59.7,29.63,SE,124,2.0,9.0,64,0.00,CLR,,0.00,WeatherDisplay:10.37,2013-05-19 22:20:00,
2013-05-19 17:25:00,73.1,60.6,29.63,East,100,0.0,6.0,65,0.00,CLR,,0.00,WeatherDisplay:10.37,2013-05-19 22:25:00,
2013-05-19 17:30:00,73.6,59.8,29.61,SE,134,0.0,7.0,62,0.00,CLR,,0.00,WeatherDisplay:10.37,2013-05-19 22:30:00,
2013-05-19 17:35:00,74.1,59.3,29.61,SE,135,1.0,8.0,60,0.00,CLR,,0.00,WeatherDisplay:10.37,2013-05-19 22:35:00,
2013-05-19 17:40:00,74.6,59.3,29.61,SE,126,0.0,4.0,59,0.00,CLR,,0.00,WeatherDisplay:10.37,2013-05-19 22:40:00,
2013-05-19 17:45:00,74.9,59.1,29.62,South,175,1.0,6.0,58,0.00,CLR,,0.00,WeatherDisplay:10.37,2013-05-19 22:45:00,
2013-05-19 17:50:00,75.3,59.0,29.62,SSW,198,0.0,6.0,57,0.00,CLR,,0.00,WeatherDisplay:10.37,2013-05-19 22:50:00,
2013-05-19 17:55:00,75.7,58.9,29.62,South,182,0.0,2.0,56,0.00,CLR,,0.00,WeatherDisplay:10.37,2013-05-19 22:55:00,
2013-05-19 18:00:00,76.0,59.7,29.62,SSE,167,0.0,2.0,57,0.00,CLR,,0.00,WeatherDisplay:10.37,2013-05-19 23:00:00,
2013-05-19 18:05:00,76.3,60.9,29.62,SSE,155,0.0,0.0,59,0.00,CLR,,0.00,WeatherDisplay:10.37,2013-05-19 23:05:00,
2013-05-19 18:10:00,76.5,59.6,29.62,SSE,156,0.0,3.0,56,0.00,CLR,,0.00,WeatherDisplay:10.37,2013-05-19 23:10:00,
2013-05-19 18:15:00,76.8,59.9,29.62,SSE,158,0.0,1.0,56,0.00,CLR,,0.00,WeatherDisplay:10.37,2013-05-19 23:15:00,
2013-05-19 18:25:00,77.2,59.8,29.62,SE,137,1.0,6.0,55,0.00,CLR,,0.00,WeatherDisplay:10.37,2013-05-19 23:25:00,
2013-05-19 18:35:00,77.6,59.6,29.61,SSE,149,0.0,7.0,54,0.00,CLR,,0.00,WeatherDisplay:10.37,2013-05-19 23:35:00,
2013-05-19 18:40:00,77.6,60.2,29.61,SSE,148,0.0,3.0,55,0.00,CLR,,0.00,WeatherDisplay:10.37,2013-05-19 23:40:00,
2013-05-19 18:45:00,77.6,60.7,29.61,SE,142,2.0,6.0,56,0.00,CLR,,0.00,WeatherDisplay:10.37,2013-05-19 23:45:00,
2013-05-19 18:50:00,77.6,61.2,29.61,SE,143,1.0,5.0,57,0.00,CLR,,0.00,WeatherDisplay:10.37,2013-05-19 23:50:00,
2013-05-19 18:55:00,77.6,61.7,29.61,SSE,147,0.0,3.0,58,0.00,CLR,,0.00,WeatherDisplay:10.37,2013-05-19 23:55:00,
2013-05-19 19:00:00,77.6,62.1,29.61,SSE,148,0.0,1.0,59,0.00,CLR,,0.00,WeatherDisplay:10.37,2013-05-20 00:00:00,
2013-05-19 19:05:00,77.4,62.4,29.61,SSE,148,0.0,1.0,60,0.00,CLR,,0.00,WeatherDisplay:10.37,2013-05-20 00:05:00,
2013-05-19 19:10:00,77.2,63.6,29.61,SSE,148,0.0,0.0,63,0.00,CLR,,0.00,WeatherDisplay:10.37,2013-05-20 00:10:00,
2013-05-19 19:15:00,76.8,63.7,29.61,SSE,147,0.0,4.0,64,0.00,CLR,,0.00,WeatherDisplay:10.37,2013-05-20 00:15:00,
2013-05-19 19:20:00,76.7,64.5,29.61,SE,141,0.0,8.0,66,0.00,CLR,,0.00,WeatherDisplay:10.37,2013-05-20 00:20:00,
2013-05-19 19:25:00,76.7,65.3,29.61,SE,139,0.0,7.0,68,0.00,CLR,,0.00,WeatherDisplay:10.37,2013-05-20 00:25:00,
2013-05-19 19:30:00,76.5,65.2,29.61,SE,144,0.0,3.0,68,0.00,CLR,,0.00,WeatherDisplay:10.37,2013-05-20 00:30:00,
2013-05-19 19:35:00,76.5,66.0,29.61,SE,128,0.0,3.0,70,0.00,CLR,,0.00,WeatherDisplay:10.37,2013-05-20 00:35:00,
2013-05-19 19:40:00,76.3,65.8,29.61,East,98,0.0,2.0,70,0.00,CLR,,0.00,WeatherDisplay:10.37,2013-05-20 00:40:00,
2013-05-19 19:45:00,76.1,66.0,29.62,ESE,108,0.0,4.0,71,0.00,CLR,,0.00,WeatherDisplay:10.37,2013-05-20 00:45:00,
2013-05-19 19:50:00,76.0,65.9,29.62,ESE,118,1.0,4.0,71,0.00,CLR,,0.00,WeatherDisplay:10.37,2013-05-20 00:50:00,
2013-05-19 20:00:00,75.8,66.1,29.63,ESE,120,0.0,3.0,72,0.00,CLR,,0.00,WeatherDisplay:10.37,2013-05-20 01:00:00,
2013-05-19 20:05:00,75.8,66.1,29.63,SSE,162,1.0,8.0,72,0.00,CLR,,0.00,WeatherDisplay:10.37,2013-05-20 01:05:00,
2013-05-19 20:10:00,75.8,66.1,29.63,SSE,152,0.0,7.0,72,0.00,CLR,,0.00,WeatherDisplay:10.37,2013-05-20 01:10:00,
2013-05-19 20:15:00,75.6,65.9,29.63,SSE,148,0.0,4.0,72,0.00,CLR,,0.00,WeatherDisplay:10.37,2013-05-20 01:15:00,
2013-05-19 20:20:00,75.4,65.7,29.63,SE,145,2.0,8.0,72,0.00,CLR,,0.00,WeatherDisplay:10.37,2013-05-20 01:20:00,
2013-05-19 20:25:00,75.3,65.6,29.63,SE,144,1.0,5.0,72,0.00,CLR,,0.00,WeatherDisplay:10.37,2013-05-20 01:25:00,
2013-05-19 20:30:00,75.1,65.5,29.62,SSE,149,1.0,6.0,72,0.00,CLR,,0.00,WeatherDisplay:10.37,2013-05-20 01:30:00,
2013-05-19 20:35:00,74.7,65.1,29.62,SE,143,1.0,8.0,72,0.00,CLR,,0.00,WeatherDisplay:10.37,2013-05-20 01:35:00,
2013-05-19 20:40:00,74.6,65.4,29.62,SE,134,1.0,6.0,73,0.00,CLR,,0.00,WeatherDisplay:10.37,2013-05-20 01:40:00,
2013-05-19 20:45:00,74.4,65.2,29.62,South,173,1.0,10.0,73,0.00,CLR,,0.00,WeatherDisplay:10.37,2013-05-20 01:45:00,
2013-05-19 20:50:00,74.0,65.2,29.62,South,177,0.0,4.0,74,0.00,CLR,,0.00,WeatherDisplay:10.37,2013-05-20 01:50:00,
2013-05-19 20:55:00,73.9,65.1,29.62,SE,142,1.0,4.0,74,0.00,CLR,,0.00,WeatherDisplay:10.37,2013-05-20 01:55:00,
2013-05-19 21:00:00,73.7,65.3,29.62,SE,141,0.0,7.0,75,0.00,CLR,,0.00,WeatherDisplay:10.37,2013-05-20 02:00:00,
2013-05-19 21:05:00,73.5,65.1,29.62,SE,129,1.0,6.0,75,0.00,CLR,,0.00,WeatherDisplay:10.37,2013-05-20 02:05:00,
2013-05-19 21:10:00,73.5,65.1,29.62,SE,127,0.0,7.0,75,0.00,CLR,,0.00,WeatherDisplay:10.37,2013-05-20 02:10:00,
2013-05-19 21:15:00,73.5,64.7,29.61,SE,134,2.0,10.0,74,0.00,CLR,,0.00,WeatherDisplay:10.37,2013-05-20 02:15:00,
2013-05-19 21:20:00,73.3,64.5,29.61,SSE,161,0.0,5.0,74,0.00,CLR,,0.00,WeatherDisplay:10.37,2013-05-20 02:20:00,
2013-05-19 21:25:00,73.3,64.5,29.61,SSE,166,1.0,9.0,74,0.00,CLR,,0.00,WeatherDisplay:10.37,2013-05-20 02:25:00,
2013-05-19 21:30:00,73.5,64.7,29.60,SE,145,2.0,12.0,74,0.00,CLR,,0.00,WeatherDisplay:10.37,2013-05-20 02:30:00,
2013-05-19 21:35:00,73.3,64.1,29.60,ESE,119,2.0,8.0,73,0.00,CLR,,0.00,WeatherDisplay:10.37,2013-05-20 02:35:00,
2013-05-19 21:40:00,73.3,64.1,29.60,SE,127,2.0,12.0,73,0.00,CLR,,0.00,WeatherDisplay:10.37,2013-05-20 02:40:00,
2013-05-19 21:45:00,73.3,63.7,29.61,SE,126,1.0,12.0,72,0.00,CLR,,0.00,WeatherDisplay:10.37,2013-05-20 02:45:00,
2013-05-19 21:50:00,73.5,63.9,29.61,SE,135,1.0,12.0,72,0.00,CLR,,0.00,WeatherDisplay:10.37,2013-05-20 02:50:00,
2013-05-19 21:55:00,73.5,63.9,29.61,SE,133,3.0,15.0,72,0.00,CLR,,0.00,WeatherDisplay:10.37,2013-05-20 02:55:00,
2013-05-19 22:00:00,73.5,63.5,29.60,SSE,147,3.0,12.0,71,0.00,CLR,,0.00,WeatherDisplay:10.37,2013-05-20 03:00:00,
2013-05-19 22:05:00,73.5,63.5,29.60,SE,144,3.0,9.0,71,0.00,CLR,,0.00,WeatherDisplay:10.37,2013-05-20 03:05:00,
2013-05-19 22:10:00,73.7,63.7,29.60,South,174,1.0,12.0,71,0.00,CLR,,0.00,WeatherDisplay:10.37,2013-05-20 03:10:00,
2013-05-19 22:15:00,73.7,63.7,29.60,South,177,3.0,12.0,71,0.00,CLR,,0.00,WeatherDisplay:10.37,2013-05-20 03:15:00,
2013-05-19 22:20:00,73.9,63.5,29.60,South,175,3.0,16.0,70,0.00,CLR,,0.00,WeatherDisplay:10.37,2013-05-20 03:20:00,
2013-05-19 22:25:00,74.2,63.0,29.60,SSW,192,7.0,29.0,68,0.00,CLR,,0.00,WeatherDisplay:10.37,2013-05-20 03:25:00,
2013-05-19 22:30:00,74.6,62.5,29.57,SE,136,3.0,14.0,66,0.00,CLR,,0.00,WeatherDisplay:10.37,2013-05-20 03:30:00,
2013-05-19 22:35:00,74.9,61.9,29.57,ESE,122,7.0,17.0,64,0.00,CLR,,0.00,WeatherDisplay:10.37,2013-05-20 03:35:00,
2013-05-19 22:40:00,74.9,60.5,29.57,SSE,157,5.0,12.0,61,0.00,CLR,,0.00,WeatherDisplay:10.37,2013-05-20 03:40:00,
2013-05-19 22:50:00,74.7,60.8,29.57,SE,140,5.0,14.0,62,0.00,CLR,,0.00,WeatherDisplay:10.37,2013-05-20 03:50:00,
2013-05-19 22:55:00,74.4,60.1,29.57,SSE,155,2.0,20.0,61,0.00,CLR,,0.00,WeatherDisplay:10.37,2013-05-20 03:55:00,
2013-05-19 23:00:00,74.0,59.7,29.59,SSE,163,1.0,6.0,61,0.00,CLR,,0.00,WeatherDisplay:10.37,2013-05-20 04:00:00,
2013-05-19 23:05:00,73.9,59.6,29.59,South,170,3.0,12.0,61,0.00,CLR,,0.00,WeatherDisplay:10.37,2013-05-20 04:05:00,
2013-05-19 23:10:00,73.7,58.9,29.59,SSE,164,2.0,14.0,60,0.00,CLR,,0.00,WeatherDisplay:10.37,2013-05-20 04:10:00,
2013-05-19 23:15:00,73.5,58.3,29.57,SSE,153,1.0,15.0,59,0.00,CLR,,0.00,WeatherDisplay:10.37,2013-05-20 04:15:00,
2013-05-19 23:20:00,73.5,57.8,29.57,ESE,118,3.0,12.0,58,0.00,CLR,,0.00,WeatherDisplay:10.37,2013-05-20 04:20:00,
2013-05-19 23:25:00,73.3,58.6,29.57,ESE,123,0.0,14.0,60,0.00,CLR,,0.00,WeatherDisplay:10.37,2013-05-20 04:25:00,
2013-05-19 23:30:00,73.2,58.5,29.55,ESE,116,0.0,1.0,60,0.00,CLR,,0.00,WeatherDisplay:10.37,2013-05-20 04:30:00,
2013-05-19 23:35:00,73.0,58.3,29.55,ESE,118,1.0,5.0,60,0.00,CLR,,0.00,WeatherDisplay:10.37,2013-05-20 04:35:00,
2013-05-19 23:40:00,72.7,58.5,29.55,ESE,123,2.0,4.0,61,0.00,CLR,,0.00,WeatherDisplay:10.37,2013-05-20 04:40:00,
2013-05-19 23:45:00,72.3,58.1,29.53,ESE,119,0.0,2.0,61,0.00,CLR,,0.00,WeatherDisplay:10.37,2013-05-20 04:45:00,
2013-05-19 23:50:00,72.0,58.8,29.53,ESE,118,0.0,0.0,63,0.00,CLR,,0.00,WeatherDisplay:10.37,2013-05-20 04:50:00,
2013-05-19 23:55:00,71.7,58.5,29.53,ESE,117,0.0,0.0,63,0.00,CLR,,0.00,WeatherDisplay:10.37,2013-05-20 04:55:00,